When you browse on this site, cookies collect data to enhance your experience and personalize the content and advertising you see.
Visit our Privacy Policy to learn more. By continuing to use the site, you agree to this use of cookies and data.
  • în România
  • Lista ţărilor
  • Pe 7 zile
  • Temperatura apei
  • Meteo pe hartă
  • Widget-uri
  • user-avatar
    Intrare

    Meteo pe oră la Pecs

    Astăzi, 15 Noiembrie, Vineri

    Timp Temperatura Precipitaţii Vânt Presiune Umiditate
    00:00 +7°C° 0 mm 1 m/s 740 mmHg 89%
    01:00 +6°C° 0 mm 2 m/s 740 mmHg 91%
    02:00 +7°C° 0 mm 1 m/s 740 mmHg 92%
    03:00 +7°C° 0 mm 1 m/s 739 mmHg 92%
    04:00 +7°C° 0 mm 1 m/s 739 mmHg 93%
    05:00 +6°C° 0 mm 2 m/s 739 mmHg 94%
    06:00 +6°C° 0 mm 2 m/s 739 mmHg 94%
    07:00 +5°C° 0 mm 3 m/s 740 mmHg 94%
    08:00 +8°C° 0 mm 3 m/s 740 mmHg 90%
    09:00 +9°C° 0 mm 3 m/s 740 mmHg 86%
    10:00 +10°C° 0 mm 4 m/s 740 mmHg 82%
    11:00 +12°C° 0 mm 4 m/s 740 mmHg 78%
    12:00 +13°C° 0 mm 4 m/s 740 mmHg 74%
    13:00 +14°C° 0 mm 4 m/s 739 mmHg 70%
    14:00 +13°C° 0 mm 4 m/s 739 mmHg 71%
    15:00 +13°C° 0 mm 3 m/s 739 mmHg 73%
    16:00 +12°C° 0 mm 3 m/s 739 mmHg 74%
    17:00 +12°C° 0 mm 3 m/s 739 mmHg 72%
    18:00 +12°C° 0 mm 4 m/s 739 mmHg 71%
    19:00 +12°C° 0 mm 4 m/s 739 mmHg 69%
    20:00 +12°C° 0 mm 4 m/s 739 mmHg 70%
    21:00 +12°C° 0 mm 5 m/s 739 mmHg 70%
    22:00 +12°C° 0 mm 5 m/s 739 mmHg 70%
    23:00 +12°C° 0 mm 5 m/s 739 mmHg 70%

    Mâine, 16 Noiembrie, Sâmbătă

    Timp Temperatura Precipitaţii Vânt Presiune Umiditate
    00:00 +12°C° 0 mm 5 m/s 739 mmHg 69%
    01:00 +12°C° 0 mm 5 m/s 739 mmHg 69%
    02:00 +12°C° 0 mm 5 m/s 739 mmHg 69%
    03:00 +13°C° 0 mm 6 m/s 739 mmHg 69%
    04:00 +13°C° 0 mm 6 m/s 739 mmHg 69%
    05:00 +13°C° 0 mm 6 m/s 740 mmHg 68%
    06:00 +13°C° 0 mm 6 m/s 740 mmHg 67%
    07:00 +13°C° 0 mm 6 m/s 740 mmHg 67%
    08:00 +14°C° 0 mm 6 m/s 741 mmHg 66%
    09:00 +14°C° 0 mm 5 m/s 741 mmHg 65%
    10:00 +15°C° 0 mm 5 m/s 742 mmHg 65%
    11:00 +15°C° 0 mm 4 m/s 742 mmHg 65%
    12:00 +16°C° 0 mm 3 m/s 742 mmHg 66%
    13:00 +16°C° 0 mm 2 m/s 743 mmHg 66%
    14:00 +16°C° 0 mm 2 m/s 742 mmHg 70%
    15:00 +15°C° 0 mm 1 m/s 742 mmHg 74%
    16:00 +14°C° 0 mm 1 m/s 742 mmHg 77%
    17:00 +14°C° 0 mm 1 m/s 742 mmHg 78%
    18:00 +13°C° 0 mm 1 m/s 742 mmHg 79%
    19:00 +13°C° 0 mm 1 m/s 742 mmHg 80%
    20:00 +12°C° 0 mm 2 m/s 742 mmHg 81%
    21:00 +12°C° 0 mm 2 m/s 742 mmHg 81%
    22:00 +12°C° 0 mm 2 m/s 742 mmHg 82%
    23:00 +12°C° 0 mm 2 m/s 742 mmHg 83%

    Poimâine, 17 Noiembrie, Duminică

    Timp Temperatura Precipitaţii Vânt Presiune Umiditate
    00:00 +10°C° 0 mm 2 m/s 742 mmHg 84%
    01:00 +10°C° 0 mm 3 m/s 742 mmHg 85%
    02:00 +10°C° 0 mm 3 m/s 742 mmHg 85%
    03:00 +10°C° 0 mm 3 m/s 742 mmHg 85%
    04:00 +10°C° 0 mm 3 m/s 741 mmHg 85%
    05:00 +10°C° 0 mm 3 m/s 741 mmHg 86%
    06:00 +10°C° 0 mm 3 m/s 741 mmHg 87%
    07:00 +9°C° 0 mm 3 m/s 742 mmHg 87%
    08:00 +11°C° 0 mm 4 m/s 741 mmHg 81%
    09:00 +12°C° 0 mm 5 m/s 741 mmHg 75%
    10:00 +13°C° 0 mm 5 m/s 741 mmHg 69%
    11:00 +14°C° 0 mm 6 m/s 741 mmHg 65%
    12:00 +15°C° 0 mm 6 m/s 741 mmHg 62%
    13:00 +16°C° 0 mm 6 m/s 740 mmHg 58%
    14:00 +15°C° 0 mm 6 m/s 740 mmHg 59%
    15:00 +15°C° 0 mm 5 m/s 740 mmHg 61%
    16:00 +14°C° 0 mm 5 m/s 739 mmHg 62%
    17:00 +14°C° 0 mm 5 m/s 739 mmHg 64%
    18:00 +13°C° 0 mm 5 m/s 739 mmHg 66%
    19:00 +13°C° 0 mm 6 m/s 738 mmHg 67%
    20:00 +13°C° 0 mm 6 m/s 738 mmHg 68%
    21:00 +11°C° 0 mm 6 m/s 738 mmHg 69%
    22:00 +11°C° 0 mm 6 m/s 738 mmHg 70%
    23:00 +11°C° 0 mm 6 m/s 737 mmHg 71%

    18 Noiembrie, Luni

    Timp Temperatura Precipitaţii Vânt Presiune Umiditate
    00:00 +11°C° 0 mm 6 m/s 737 mmHg 71%
    01:00 +11°C° 0 mm 6 m/s 737 mmHg 72%
    02:00 +12°C° 0.2 mm 5 m/s 737 mmHg 75%
    03:00 +12°C° 0.2 mm 3 m/s 737 mmHg 79%
    04:00 +12°C° 0.2 mm 2 m/s 737 mmHg 83%
    05:00 +11°C° 0 mm 3 m/s 737 mmHg 82%
    06:00 +11°C° 0 mm 3 m/s 737 mmHg 80%
    07:00 +10°C° 0 mm 4 m/s 738 mmHg 79%
    08:00 +11°C° 0 mm 4 m/s 739 mmHg 72%
    09:00 +12°C° 0 mm 4 m/s 739 mmHg 65%
    10:00 +13°C° 0 mm 3 m/s 740 mmHg 58%
    11:00 +14°C° 0 mm 4 m/s 740 mmHg 55%
    12:00 +15°C° 0 mm 4 m/s 740 mmHg 52%
    13:00 +15°C° 0 mm 5 m/s 741 mmHg 48%
    14:00 +15°C° 0 mm 4 m/s 741 mmHg 52%
    15:00 +14°C° 0 mm 3 m/s 741 mmHg 56%
    16:00 +14°C° 0 mm 2 m/s 741 mmHg 59%
    17:00 +13°C° 0 mm 3 m/s 741 mmHg 60%
    18:00 +12°C° 0 mm 3 m/s 742 mmHg 60%
    19:00 +12°C° 0 mm 3 m/s 742 mmHg 61%
    20:00 +11°C° 0 mm 3 m/s 742 mmHg 63%
    21:00 +11°C° 0 mm 3 m/s 743 mmHg 64%
    22:00 +12°C° 0 mm 2 m/s 743 mmHg 66%
    23:00 +10°C° 0 mm 2 m/s 743 mmHg 66%

    19 Noiembrie, Marţi

    Timp Temperatura Precipitaţii Vânt Presiune Umiditate
    00:00 +10°C° 0 mm 2 m/s 743 mmHg 66%
    01:00 +10°C° 0 mm 2 m/s 743 mmHg 66%
    02:00 +10°C° 0 mm 2 m/s 743 mmHg 66%
    03:00 +10°C° 0 mm 2 m/s 743 mmHg 66%
    04:00 +10°C° 0 mm 2 m/s 743 mmHg 67%
    05:00 +10°C° 0 mm 2 m/s 743 mmHg 68%
    06:00 +9°C° 0 mm 2 m/s 743 mmHg 68%
    07:00 +9°C° 0 mm 2 m/s 743 mmHg 69%
    08:00 +10°C° 0 mm 3 m/s 743 mmHg 67%
    09:00 +11°C° 0 mm 3 m/s 743 mmHg 65%
    10:00 +13°C° 0 mm 4 m/s 743 mmHg 62%
    11:00 +13°C° 0 mm 4 m/s 742 mmHg 58%
    12:00 +14°C° 0 mm 4 m/s 742 mmHg 54%
    13:00 +15°C° 0 mm 4 m/s 741 mmHg 49%
    14:00 +15°C° 0 mm 4 m/s 741 mmHg 50%
    15:00 +14°C° 0 mm 4 m/s 740 mmHg 52%
    16:00 +14°C° 0 mm 3 m/s 740 mmHg 53%
    17:00 +13°C° 0 mm 3 m/s 740 mmHg 54%
    18:00 +13°C° 0 mm 3 m/s 740 mmHg 55%
    19:00 +13°C° 0 mm 3 m/s 740 mmHg 56%
    20:00 +13°C° 0 mm 3 m/s 740 mmHg 58%
    21:00 +12°C° 0 mm 3 m/s 740 mmHg 60%
    22:00 +12°C° 0 mm 3 m/s 740 mmHg 63%
    23:00 +12°C° 0 mm 3 m/s 740 mmHg 66%

    20 Noiembrie, Miercuri

    Timp Temperatura Precipitaţii Vânt Presiune Umiditate
    00:00 +11°C° 0 mm 3 m/s 740 mmHg 69%
    01:00 +11°C° 0 mm 3 m/s 740 mmHg 72%
    02:00 +12°C° 0 mm 2 m/s 740 mmHg 73%
    03:00 +12°C° 0 mm 2 m/s 740 mmHg 73%
    04:00 +12°C° 0 mm 2 m/s 740 mmHg 74%
    05:00 +10°C° 0.7 mm 2 m/s 740 mmHg 80%
    06:00 +10°C° 0.7 mm 2 m/s 741 mmHg 85%
    07:00 +10°C° 0.7 mm 2 m/s 741 mmHg 91%
    08:00 +10°C° 0.1 mm 3 m/s 741 mmHg 84%
    09:00 +11°C° 0.1 mm 3 m/s 742 mmHg 77%
    10:00 +11°C° 0.1 mm 3 m/s 742 mmHg 70%
    11:00 +12°C° 0 mm 3 m/s 742 mmHg 65%
    12:00 +13°C° 0 mm 4 m/s 742 mmHg 60%
    13:00 +13°C° 0 mm 4 m/s 742 mmHg 55%
    14:00 +12°C° 0 mm 3 m/s 742 mmHg 58%
    15:00 +11°C° 0 mm 3 m/s 742 mmHg 60%
    16:00 +10°C° 0 mm 2 m/s 742 mmHg 62%
    17:00 +10°C° 0 mm 2 m/s 743 mmHg 65%
    18:00 +9°C° 0 mm 2 m/s 743 mmHg 68%
    19:00 +8°C° 0 mm 2 m/s 743 mmHg 70%
    20:00 +9°C° 0 mm 1 m/s 743 mmHg 72%
    21:00 +9°C° 0 mm 1 m/s 743 mmHg 74%
    22:00 +9°C° 0 mm 1 m/s 744 mmHg 76%
    23:00 +8°C° 0 mm 1 m/s 744 mmHg 77%
    Arată mai mult